• In Russia
  • List of Countries
  • For 7 days
  • Water Temperature
  • Satellite Maps
  • Weather Map
  • Weather Widgets
  • user-avatar
    Login

    Hourly Weather Kerns

    Today, 28 March, Tuesday

    Time Temperature Precipitation Wind Pressure Humidity
    00:00 +28°C° 0 mm 2 mps 754 mmHg 89%
    01:00 +28°C° 0 mm 3 mps 753 mmHg 88%
    02:00 +28°C° 0 mm 3 mps 753 mmHg 87%
    03:00 +28°C° 0 mm 3 mps 753 mmHg 86%
    04:00 +28°C° 0 mm 4 mps 753 mmHg 84%
    05:00 +28°C° 0 mm 4 mps 753 mmHg 83%
    06:00 +28°C° 0 mm 4 mps 753 mmHg 82%
    07:00 +28°C° 0 mm 5 mps 753 mmHg 81%
    08:00 +30°C° 0 mm 4 mps 753 mmHg 74%
    09:00 +33°C° 0 mm 4 mps 753 mmHg 66%
    10:00 +35°C° 0 mm 3 mps 753 mmHg 59%
    11:00 +36°C° 0 mm 3 mps 753 mmHg 56%
    12:00 +37°C° 0 mm 3 mps 752 mmHg 53%
    13:00 +38°C° 0 mm 3 mps 752 mmHg 51%
    14:00 +37°C° 0 mm 3 mps 752 mmHg 53%
    15:00 +37°C° 0 mm 4 mps 751 mmHg 56%
    16:00 +35°C° 0 mm 4 mps 751 mmHg 74%
    17:00 +34°C° 0.1 mm 4 mps 751 mmHg 76%
    18:00 +33°C° 0.1 mm 4 mps 751 mmHg 78%
    19:00 +32°C° 0.1 mm 4 mps 752 mmHg 81%
    20:00 +30°C° 0.1 mm 4 mps 752 mmHg 80%
    21:00 +30°C° 0.1 mm 4 mps 752 mmHg 79%
    22:00 +30°C° 0.1 mm 4 mps 752 mmHg 79%
    23:00 +29°C° 0.1 mm 4 mps 752 mmHg 80%

    Tomorrow, 29 March, Wednesday

    Time Temperature Precipitation Wind Pressure Humidity
    00:00 +29°C° 0.1 mm 4 mps 752 mmHg 81%
    01:00 +29°C° 0.1 mm 4 mps 752 mmHg 82%
    02:00 +29°C° 0.1 mm 4 mps 752 mmHg 84%
    03:00 +29°C° 0.1 mm 4 mps 752 mmHg 85%
    04:00 +29°C° 0.1 mm 4 mps 752 mmHg 87%
    05:00 +29°C° 0 mm 4 mps 752 mmHg 87%
    06:00 +29°C° 0 mm 4 mps 753 mmHg 88%
    07:00 +29°C° 0 mm 4 mps 753 mmHg 88%
    08:00 +32°C° 0 mm 4 mps 753 mmHg 80%
    09:00 +33°C° 0 mm 4 mps 753 mmHg 71%
    10:00 +35°C° 0 mm 4 mps 754 mmHg 63%
    11:00 +36°C° 0 mm 4 mps 753 mmHg 58%
    12:00 +39°C° 0 mm 5 mps 753 mmHg 52%
    13:00 +40°C° 0 mm 5 mps 752 mmHg 47%
    14:00 +39°C° 0.1 mm 5 mps 752 mmHg 49%
    15:00 +39°C° 0.1 mm 5 mps 752 mmHg 51%
    16:00 +39°C° 0.1 mm 5 mps 752 mmHg 52%
    17:00 +36°C° 0 mm 5 mps 752 mmHg 63%
    18:00 +33°C° 0 mm 5 mps 753 mmHg 73%
    19:00 +30°C° 0 mm 5 mps 753 mmHg 83%
    20:00 +30°C° 0.1 mm 5 mps 754 mmHg 86%
    21:00 +29°C° 0.1 mm 5 mps 755 mmHg 89%
    22:00 +29°C° 0.1 mm 4 mps 755 mmHg 92%
    23:00 +29°C° 0 mm 4 mps 755 mmHg 91%

    Day after tomorrow, 30 March, Thursday

    Time Temperature Precipitation Wind Pressure Humidity
    00:00 +29°C° 0 mm 4 mps 755 mmHg 91%
    01:00 +29°C° 0 mm 4 mps 756 mmHg 90%
    02:00 +29°C° 0 mm 4 mps 755 mmHg 91%
    03:00 +28°C° 0 mm 3 mps 755 mmHg 92%
    04:00 +28°C° 0 mm 3 mps 755 mmHg 93%
    05:00 +28°C° 0.1 mm 3 mps 756 mmHg 93%
    06:00 +28°C° 0.1 mm 3 mps 756 mmHg 94%
    07:00 +28°C° 0.1 mm 2 mps 757 mmHg 94%
    08:00 +31°C° 0 mm 2 mps 757 mmHg 81%
    09:00 +34°C° 0 mm 2 mps 757 mmHg 68%
    10:00 +37°C° 0 mm 2 mps 758 mmHg 55%
    11:00 +38°C° 0 mm 3 mps 757 mmHg 50%
    12:00 +39°C° 0 mm 3 mps 756 mmHg 45%
    13:00 +40°C° 0 mm 3 mps 756 mmHg 40%
    14:00 +39°C° 0.1 mm 3 mps 755 mmHg 49%
    15:00 +37°C° 0.1 mm 4 mps 755 mmHg 59%
    16:00 +35°C° 0.1 mm 4 mps 754 mmHg 68%
    17:00 +34°C° 0.1 mm 3 mps 755 mmHg 77%
    18:00 +31°C° 0.1 mm 3 mps 756 mmHg 85%
    19:00 +29°C° 0.1 mm 2 mps 756 mmHg 94%
    20:00 +29°C° 0 mm 2 mps 757 mmHg 93%
    21:00 +29°C° 0 mm 2 mps 757 mmHg 92%
    22:00 +28°C° 0 mm 2 mps 758 mmHg 92%
    23:00 +28°C° 0 mm 2 mps 757 mmHg 91%

    31 March, Friday

    Time Temperature Precipitation Wind Pressure Humidity
    00:00 +28°C° 0 mm 2 mps 757 mmHg 90%
    01:00 +28°C° 0 mm 2 mps 757 mmHg 89%
    02:00 +28°C° 0 mm 2 mps 757 mmHg 87%
    03:00 +28°C° 0 mm 2 mps 756 mmHg 85%
    04:00 +28°C° 0 mm 2 mps 756 mmHg 84%
    05:00 +28°C° 0 mm 2 mps 756 mmHg 85%
    06:00 +28°C° 0 mm 2 mps 757 mmHg 86%
    07:00 +28°C° 0 mm 2 mps 757 mmHg 87%
    08:00 +30°C° 0 mm 1 mps 757 mmHg 76%
    09:00 +33°C° 0 mm 1 mps 758 mmHg 65%
    10:00 +36°C° 0 mm 1 mps 758 mmHg 55%
    11:00 +36°C° 0 mm 1 mps 757 mmHg 53%
    12:00 +37°C° 0 mm 2 mps 757 mmHg 51%
    13:00 +38°C° 0 mm 3 mps 756 mmHg 49%
    14:00 +37°C° 0.3 mm 2 mps 756 mmHg 57%
    15:00 +36°C° 0.3 mm 2 mps 756 mmHg 64%
    16:00 +35°C° 0.3 mm 2 mps 755 mmHg 71%
    17:00 +32°C° 0.1 mm 2 mps 756 mmHg 78%
    18:00 +30°C° 0.1 mm 2 mps 756 mmHg 86%
    19:00 +28°C° 0.1 mm 1 mps 757 mmHg 93%
    20:00 +28°C° 0 mm 1 mps 757 mmHg 95%
    21:00 +27°C° 0 mm 1 mps 758 mmHg 96%
    22:00 +27°C° 0 mm 1 mps 758 mmHg 98%
    23:00 +26°C° 0 mm 1 mps 758 mmHg 98%

    1 April, Saturday

    Time Temperature Precipitation Wind Pressure Humidity
    00:00 +26°C° 0 mm 1 mps 758 mmHg 98%
    01:00 +26°C° 0 mm 1 mps 757 mmHg 97%
    02:00 +26°C° 0 mm 1 mps 757 mmHg 97%
    03:00 +26°C° 0 mm 1 mps 757 mmHg 96%
    04:00 +26°C° 0 mm 1 mps 756 mmHg 95%
    05:00 +26°C° 0 mm 2 mps 757 mmHg 95%
    06:00 +26°C° 0 mm 2 mps 757 mmHg 95%
    07:00 +26°C° 0 mm 2 mps 758 mmHg 94%
    08:00 +28°C° 0 mm 3 mps 758 mmHg 85%
    09:00 +30°C° 0 mm 3 mps 758 mmHg 76%
    10:00 +33°C° 0 mm 3 mps 759 mmHg 68%
    11:00 +34°C° 0.1 mm 3 mps 758 mmHg 68%
    12:00 +34°C° 0.1 mm 4 mps 758 mmHg 68%
    13:00 +34°C° 0.1 mm 4 mps 757 mmHg 68%
    14:00 +33°C° 0.5 mm 4 mps 757 mmHg 74%
    15:00 +32°C° 0.5 mm 4 mps 756 mmHg 80%
    16:00 +30°C° 0.5 mm 4 mps 756 mmHg 86%
    17:00 +29°C° 0.5 mm 4 mps 757 mmHg 88%
    18:00 +28°C° 0.5 mm 4 mps 757 mmHg 91%
    19:00 +28°C° 0.5 mm 4 mps 758 mmHg 94%
    20:00 +27°C° 0.3 mm 4 mps 758 mmHg 94%
    21:00 +27°C° 0.3 mm 4 mps 759 mmHg 95%
    22:00 +26°C° 0.3 mm 4 mps 759 mmHg 95%
    23:00 +26°C° 0.1 mm 4 mps 759 mmHg 95%

    2 April, Sunday

    Time Temperature Precipitation Wind Pressure Humidity
    00:00 +26°C° 0.1 mm 4 mps 758 mmHg 94%
    01:00 +26°C° 0.1 mm 4 mps 758 mmHg 94%
    02:00 +26°C° 0 mm 4 mps 758 mmHg 94%
    03:00 +25°C° 0 mm 4 mps 758 mmHg 94%
    04:00 +25°C° 0 mm 4 mps 758 mmHg 95%
    05:00 +23°C° 0 mm 4 mps 758 mmHg 94%
    06:00 +23°C° 0 mm 4 mps 759 mmHg 93%
    07:00 +23°C° 0 mm 4 mps 759 mmHg 92%
    08:00 +26°C° 0 mm 4 mps 759 mmHg 84%
    09:00 +28°C° 0 mm 5 mps 759 mmHg 75%
    10:00 +30°C° 0 mm 5 mps 759 mmHg 66%
    11:00 +32°C° 0 mm 5 mps 759 mmHg 63%
    12:00 +33°C° 0 mm 5 mps 758 mmHg 60%
    13:00 +34°C° 0 mm 6 mps 758 mmHg 57%
    14:00 +33°C° 0.1 mm 6 mps 758 mmHg 61%
    15:00 +33°C° 0.1 mm 6 mps 757 mmHg 65%
    16:00 +32°C° 0.1 mm 6 mps 757 mmHg 69%
    17:00 +29°C° 0.1 mm 6 mps 758 mmHg 76%
    18:00 +28°C° 0.1 mm 5 mps 759 mmHg 83%
    19:00 +26°C° 0.1 mm 5 mps 759 mmHg 90%
    20:00 +26°C° 0.1 mm 5 mps 759 mmHg 91%
    21:00 +26°C° 0.1 mm 5 mps 760 mmHg 92%
    22:00 +26°C° 0.1 mm 5 mps 760 mmHg 93%
    23:00 +26°C° 0.2 mm 5 mps 760 mmHg 93%
    Show more